Location: Wanzleben
(52.0609°N, 11.4408°E)
Time: 17:20:47
(UTC+00:00)

Envisat - Pass Details

Date: 04 December 2020
Orbit: 764 x 766 km, 98.1° (Epoch: 20 January)

Event Time Altitude Azimuth Distance (km) Brightness Sun altitude
Rises 16:24:47 0° 175° (S) 3,222 6.5 -11.6°
Reaches altitude 10° 16:27:07 10° 179° (S) 2,300 5.7 -12.0°
Maximum altitude 16:32:07 59° 259° (W) 889 3.7 -12.7°
Drops below altitude 10° 16:37:10 10° 339° (NNW) 2,317 5.5 -13.4°
Sets 16:39:31 0° 343° (NNW) 3,248 6.2 -13.7°
